星链-34204(STARLINK-34204)

导读

STARLINK-34204是美国SpaceX星链星座的卫星,于2025年10月28日发射入轨,属于星链互联网卫星网络的扩容卫星,依托星链系统为全球提供低延迟、高速率的宽带互联网服务,填补偏远地区网络覆盖空白,也为海事、航空等移动场景提供网络支持,进一步扩充了星链星座的服务容量与覆盖范围。

基本信息
目录编号:
66213
目录名称:
STARLINK-34204
国际标识:
2025-244H
轨道中心:
EARTH
卫星名称:
星链-34204
卫星全名:
星链-34204(STARLINK-34204)
卫星状态:
在轨 (已飞行312 天)
发射日期:
2025-10-28 UTC
国别 :
美国 (US)
星等 :
--
轨道信息
数据来源 国际轨道数据
星历时间: 2026-09-05T16:24:23+0800
11小时前
查看轨道信息
半长轴: 6840.836km
偏心率: 0.0001128
轨道倾角: 53.159°
近地点辐角 103.913°
升交点赤经 112.765°
平近点角 256.200°
近地点: 461.927km
远地点: 463.471km
周期: 93.848分钟
每日圈数: 15.344016
详细信息
固有亮度:
5
最大亮度:
2.5
卫星平台:
Starlink V1.0
覆盖范围:
全球
运营商:
太空探索技术公司
运营商所在国:
美国
制造商(研发单位):
太空探索技术公司
制造商所在国:
美国
使用方式:
暂无
卫星简介
Starlink 计划是 SpaceX 推出的全球卫星互联网项目,通过发射低轨道卫星,为全球尤其是偏远地区提供高速、低延迟的互联网服务。自 2019 年起,Starlink 已部署数千颗卫星,旨在缩小全球数字鸿沟,推动互联网普及。该项目还为军事、航空等行业提供通信支持,带来广泛经济效益。
2D轨道图
3D轨道图
轨道高度分析图
轨道倾角分析图
轨道综合分析图
查看轨道综合分析图
交会数据列表
事件ID 空间交会对象 最接近时刻(TCA) 交会距离 交会风险概率(CRP) 交会风险指数(CRI) 操作
CDM_260906-220804-377106-621322
OBJECT P (43771)
2026-09-06T
22:08:07+0000
1.960 km
极远距离
2.961416E-6 低风险 0.44
CDM_260906-193404-763006-621321
2026-09-06T
19:34:47+0000
2.516 km
极远距离
1.550535E-6 低风险 0.39
CDM_260906-003905-177706-621321
2026-09-06T
00:39:19+0000
2.823 km
极远距离
1.226161E-6 低风险 0.37
CDM_260906-181005-212706-621321
2026-09-06T
18:10:02+0000
2.923 km
极远距离
1.182397E-6 低风险 0.36